N765PR LFMD-LFLC

Flight info

Callsign N765PR
Flight time N/A
Altitude 22000
Route BODRU RETNO MTL R31 PIMAK
Aircraft PA46/L-SDE3FGHIRWY/S

Departure

Time 2026-04-19 09:58
Airport Cannes Mandelieu Airport (LFMD)

Arrival

Time N/A
Airport Clermont-Ferrand Auvergne airport (LFLC)
Time Latitude Longitude Altitude Speed Heading
2026-04-19 09:57 43.48077 6.99821 1993 ft 136 kts 131°
2026-04-19 09:58 43.47444 7.00807 1992 ft 138 kts 131°
2026-04-19 09:58 43.46809 7.01795 1993 ft 138 kts 131°
2026-04-19 09:58 43.46177 7.02786 1995 ft 138 kts 131°
2026-04-19 09:58 43.45535 7.03793 2003 ft 145 kts 131°
2026-04-19 09:59 43.44837 7.04880 2005 ft 158 kts 131°
2026-04-19 09:59 43.44093 7.06033 2004 ft 168 kts 132°
2026-04-19 09:59 43.43302 7.07260 2006 ft 174 kts 131°
2026-04-19 09:59 43.42490 7.08523 2006 ft 178 kts 132°
2026-04-19 10:00 43.41660 7.09821 2002 ft 181 kts 131°
2026-04-19 10:00 43.40819 7.11133 2002 ft 184 kts 134°
2026-04-19 10:00 43.39967 7.12464 2004 ft 187 kts 135°
2026-04-19 10:00 43.39098 7.13813 2004 ft 189 kts 135°
2026-04-19 10:01 43.38226 7.15170 2001 ft 190 kts 134°
2026-04-19 10:01 43.37351 7.16537 2002 ft 190 kts 135°
2026-04-19 10:01 43.36474 7.17904 2002 ft 190 kts 135°
2026-04-19 10:01 43.35598 7.19267 2001 ft 190 kts 135°
2026-04-19 10:02 43.34734 7.20611 2000 ft 190 kts 134°
2026-04-19 10:02 43.33857 7.21972 1999 ft 190 kts 134°
2026-04-19 10:02 43.32982 7.23326 1997 ft 190 kts 134°
2026-04-19 10:02 43.32108 7.24682 1996 ft 190 kts 134°
2026-04-19 10:03 43.31231 7.26043 1994 ft 190 kts 134°
2026-04-19 10:03 43.30676 7.27669 1975 ft 192 kts 96°
2026-04-19 10:03 43.31042 7.29305 2492 ft 171 kts 47°
2026-04-19 10:03 43.31905 7.30185 3234 ft 141 kts 16°
2026-04-19 10:04 43.32822 7.30400 3713 ft 132 kts 349°
2026-04-19 10:04 43.33670 7.30073 4154 ft 125 kts 326°
2026-04-19 10:04 43.34378 7.29402 4605 ft 124 kts 319°
2026-04-19 10:04 43.35093 7.28737 5042 ft 124 kts 320°
2026-04-19 10:05 43.35817 7.28074 5462 ft 125 kts 320°
2026-04-19 10:05 43.36550 7.27407 5891 ft 126 kts 321°
2026-04-19 10:05 43.37288 7.26738 6315 ft 128 kts 321°
2026-04-19 10:05 43.38021 7.26074 6716 ft 128 kts 321°
2026-04-19 10:06 43.38769 7.25399 7120 ft 129 kts 321°
2026-04-19 10:06 43.39518 7.24722 7526 ft 129 kts 321°
2026-04-19 10:06 43.40271 7.24041 7944 ft 129 kts 322°
2026-04-19 10:06 43.41015 7.23375 8132 ft 123 kts 323°
2026-04-19 10:07 43.41724 7.22767 8099 ft 116 kts 324°
2026-04-19 10:07 43.42290 7.22067 8013 ft 110 kts 289°
2026-04-19 10:07 43.42406 7.20982 7737 ft 120 kts 278°
2026-04-19 10:07 43.42510 7.19819 7372 ft 127 kts 278°
2026-04-19 10:08 43.42622 7.18583 7008 ft 132 kts 278°
2026-04-19 10:08 43.42737 7.17316 6645 ft 135 kts 278°
2026-04-19 10:08 43.42855 7.16045 6272 ft 136 kts 278°
2026-04-19 10:08 43.43020 7.14756 5876 ft 137 kts 282°
2026-04-19 10:09 43.43216 7.13459 5461 ft 139 kts 282°
2026-04-19 10:09 43.43415 7.12151 5034 ft 140 kts 282°
2026-04-19 10:09 43.43617 7.10829 4599 ft 141 kts 283°
2026-04-19 10:09 43.43840 7.09505 4160 ft 143 kts 291°
2026-04-19 10:10 43.44505 7.08485 3732 ft 147 kts 320°
2026-04-19 10:10 43.45307 7.07607 3296 ft 148 kts 320°
2026-04-19 10:10 43.46095 7.06709 2996 ft 140 kts 320°
2026-04-19 10:10 43.46784 7.05903 2923 ft 124 kts 319°
2026-04-19 10:11 43.47445 7.05135 2701 ft 123 kts 319°
2026-04-19 10:11 43.48093 7.04379 2488 ft 121 kts 319°
2026-04-19 10:11 43.48715 7.03636 2281 ft 119 kts 320°
2026-04-19 10:11 43.49332 7.02878 2070 ft 119 kts 319°
2026-04-19 10:12 43.49939 7.02111 1865 ft 118 kts 319°
2026-04-19 10:12 43.50535 7.01332 1666 ft 118 kts 319°
2026-04-19 10:12 43.51135 7.00549 1454 ft 119 kts 320°
2026-04-19 10:12 43.51755 6.99780 1253 ft 121 kts 323°
2026-04-19 10:13 43.52414 6.99017 1089 ft 128 kts 324°
2026-04-19 10:13 43.53108 6.98236 1003 ft 127 kts 327°
2026-04-19 10:13 43.53850 6.97693 998 ft 118 kts 337°
2026-04-19 10:13 43.54577 6.97212 995 ft 113 kts 338°
2026-04-19 10:14 43.55285 6.96733 993 ft 114 kts 343°
2026-04-19 10:14 43.56054 6.96476 990 ft 113 kts 353°
2026-04-19 10:14 43.56839 6.96305 1000 ft 116 kts 356°
2026-04-19 10:14 43.57638 6.96199 1004 ft 115 kts
2026-04-19 10:15 43.58447 6.96063 1009 ft 117 kts 346°
2026-04-19 10:15 43.59098 6.95412 1000 ft 124 kts 308°
2026-04-19 10:15 43.59275 6.94273 978 ft 128 kts 257°
2026-04-19 10:15 43.58710 6.93534 1087 ft 115 kts 172°
2026-04-19 10:16 43.58002 6.93954 900 ft 104 kts 150°
2026-04-19 10:16 43.57403 6.94406 575 ft 92 kts 158°
2026-04-19 10:16 43.56835 6.94700 319 ft 87 kts 168°
2026-04-19 10:16 43.56191 6.94835 197 ft 97 kts 173°
2026-04-19 10:17 43.55522 6.94960 56 ft 97 kts 174°
2026-04-19 10:17 43.54876 6.95074 11 ft 85 kts 174°
2026-04-19 10:17 43.54535 6.95130 14 ft 17 kts 171°
2026-04-19 10:17 43.54465 6.95144 15 ft 7 kts 171°
2026-04-19 10:18 43.54421 6.95156 15 ft 6 kts 144°
2026-04-19 10:18 43.54412 6.95210 14 ft 7 kts 92°
2026-04-19 10:18 43.54421 6.95296 12 ft 10 kts 72°
2026-04-19 10:19 43.54500 6.95454 12 ft 11 kts 44°
2026-04-19 10:19 43.54557 6.95512 12 ft 11 kts 341°
2026-04-19 10:19 43.54615 6.95514 12 ft 5 kts 37°
2026-04-19 10:19 43.54620 6.95521 12 ft 0 kts 49°